Location: Plymouth Village
(34.0436°N, 117.1717°W)
Time: 05:06:37
(UTC+00:00)

CZ-2C R/B - Pass Details

Date: 10 September 2024
Orbit: 664 x 778 km, 98.4° (Epoch: 09 October)

Event Time Altitude Azimuth Distance (km) Brightness Sun altitude
Rises 12:42:31 0° 350° (N) 3,147 5.7 -10.3°
Reaches altitude 10° 12:45:56 10° 325° (NW) 2,195 4.6 -9.6°
Maximum altitude 12:48:14 14° 296° (WNW) 1,941 4.1 -9.2°
Enters shadow 12:50:19 11° 269° (W) 2,122 4.1 -8.7°
